Location: Toronto
(43.6672°N, 79.4170°W)
Time: 04:26:47
(UTC-04:00)

ISS - Visible Passes

Search period start: 31 March 2015 00:00
Search period end: 10 April 2015 00:00
Orbit: 396 x 405 km, 51.6° (Epoch: 31 March)

Date Brightness Start Highest point End Pass type
(mag) Time Alt. Az. Time Alt. Az. Time Alt. Az.
31 Mar -1.3 04:44:48 24° ESE 04:44:48 24° ESE 04:46:15 10° ESE visible
31 Mar -1.7 06:17:26 12° W 06:19:09 17° SW 06:21:17 10° S visible
01 Apr -1.8 05:27:09 22° S 05:27:09 22° S 05:28:45 10° SSE visible
02 Apr -0.9 21:09:34 10° S 21:09:50 11° S 21:09:50 11° S visible
03 Apr -1.1 20:18:07 10° SE 20:18:39 10° SE 20:19:18 10° ESE visible
03 Apr -1.4 21:51:20 10° SW 21:52:41 23° SW 21:52:41 23° SW visible
04 Apr -2.9 20:57:59 10° SSW 21:01:05 41° SE 21:02:29 25° E visible
04 Apr -0.3 22:34:30 10° W 22:35:08 14° W 22:35:08 14° W visible
05 Apr -2.6 21:40:37 10° WSW 21:43:49 52° NNW 21:44:35 41° NNE visible
06 Apr -3.4 20:46:54 10° WSW 20:50:10 90° E 20:53:26 10° ENE visible
06 Apr -0.9 22:24:07 10° WNW 22:26:20 23° NNW 22:26:20 23° NNW visible
07 Apr -1.6 21:30:03 10° W 21:33:02 32° NNW 21:35:14 15° NE visible
07 Apr 0.2 23:07:38 10° NW 23:07:49 11° NW 23:07:49 11° NW visible
08 Apr -2.3 20:36:03 10° WSW 20:39:14 47° NNW 20:42:25 10° NE visible
08 Apr -1.0 22:13:37 10° WNW 22:16:10 20° N 22:16:31 20° N visible
09 Apr -1.1 21:19:30 10° WNW 21:22:13 23° NNW 21:24:56 10° NE visible
09 Apr -0.1 22:56:47 10° NW 22:57:38 15° NNW 22:57:38 15° NNW visible
